Regional Weather Roundup
Issued by NWS

Home | Current Version | Previous Version | Graphics & Text | Print | Product List | Glossary On
Versions: 1 2 3 4 5 6 7 8 9 10 11 12 13 14 15 16 17 18 19 20 21 22 23 24 25 26 27 28 29 30 31 32 33 34 35 36 37 38 39 40 41 42 43 44 45 46 47 48 49 50
000
ASUS43 KLMK 290102
RWRKY
KENTUCKY REGIONAL WEATHER ROUNDUP
NATIONAL WEATHER SERVICE LOUISVILLE KY
900 PM EDT FRI AUG 28 2015

NOTE "FAIR" INDICATES FEW OR NO CLOUDS BELOW 12,000 FEET
WITH NO SIGNIFICANT WEATHER AND/OR OBSTRUCTIONS TO VISIBILITY.

KYZ001>023-026-027-061>063-070>075-290200-
WESTERN AND SOUTH CENTRAL KENTUCKY

CITY           SKY/WX    TMP DP  RH WIND       PRES   REMARKS
PADUCAH        PTCLDY    75  66  73 CALM      30.02S
HENDERSON      PTCLDY    72  64  78 CALM      30.04R
OWENSBORO      CLEAR     77  65  66 CALM      30.06R
HOPKINSVILLE   CLEAR     76  66  69 CALM      30.04R
BOWLING GREEN  CLEAR     75  64  68 E3        30.06S
GLASGOW        CLEAR     73  65  76 E3        30.08R
$$

KYZ024-025-028>034-038-045-046-053-290200-
NORTH CENTRAL KENTUCKY

CITY           SKY/WX    TMP DP  RH WIND       PRES   REMARKS
LOUISVILLE/SDF PTCLDY    80  60  50 E5        30.07S
LOUISVILLE/LOU CLEAR     78  61  55 N3        30.09R
FORT KNOX      PTCLDY    69  64  85 N3        30.07S
$$

KYZ035>037-039>044-047>052-055>060-089>105-290200-
NORTHEAST KENTUCKY

CITY           SKY/WX    TMP DP  RH WIND       PRES   REMARKS
LEXINGTON      CLEAR     73  60  63 NE8       30.12R
COVINGTON      MOCLDY    70  58  65 SE5       30.11S
FRANKFORT      CLEAR     69  62  78 CALM      30.10R
$$

KYZ054-064>069-076>088-106>120-290200-
SOUTHEAST KENTUCKY

CITY           SKY/WX    TMP DP  RH WIND       PRES   REMARKS
JACKSON        CLEAR     74  60  61 CALM      30.15R
LONDON         CLEAR     74  64  71 CALM      30.13R
SOMERSET       CLEAR     72  64  78 CALM      30.13R
MIDDLESBORO    CLEAR     71  64  78 W3        30.14R
MONTICELLO     CLEAR     68  67  96 CALM      30.14R
$$




USA.gov is the U.S. government's official web portal to all federal, state and local government web resources and services.